Voltar ao catálogo

IRIDIUM 33 DEB

AtivoPO
NORAD 35297·DEBRIS·🇺🇸 United States

Lançado Sep 14, 1997 de Baikonur Cosmodrome

Loading…

Próximas Passagens (próximas 24 horas)

TLE

AtualizadoSource: Space-Track

Época: Sep 14, 2026, 09:48 UTC

1 35297U 97051PM  26257.40857229  .00001134  00000-0  31149-3 0  9997
2 35297  86.3859 305.0275 0013769 313.8809  46.1256 14.46201386744090

Acompanhe IRIDIUM 33 DEB em tempo real com AllMySat

Download on the App Store